Regional Weather Roundup
Issued by NWS

Home | Current Version | Previous Version | Graphics & Text | Print | Product List | Glossary On
Versions: 1 2 3 4 5 6 7 8 9 10 11 12 13 14 15 16 17 18 19 20 21 22 23 24 25 26 27 28 29 30 31 32 33 34 35 36 37 38 39 40 41 42 43 44 45 46 47 48 49 50
086
ASUS45 KBOU 271807
RWRCO

WEATHER ROUNDUP FOR COLORADO
NATIONAL WEATHER SERVICE DENVER/BOULDER CO
1200 PM MDT FRI MAY 27 2016

NOTE: "FAIR" INDICATES FEW OR NO CLOUDS BELOW 12000 FEET WITH NO
SIGNIFICANT WEATHER AND/OR OBSTRUCTIONS TO VISIBILITY.

COZ001>005-013-030-031-271900-
...NORTHWEST COLORADO...

CITY           SKY/WX    TMP DP  RH WIND       PRES   REMARKS
CRAIG          PTSUNNY   53  38  56 W15       29.98S
HAYDEN         FAIR      54  37  54 NW3       29.98F
MEEKER         LGT RAIN  57  40  52 VRB3      29.97F
MOUNT WERNER   NOT AVBL
STEAMBOAT SPGS CLOUDY    52  37  57 SW7       29.98F
WALDEN         FAIR      52  30  43 NW13      30.01R
$$

COZ006>008-011-271900-
...WEST CENTRAL VALLEYS...

CITY           SKY/WX    TMP DP  RH WIND       PRES   REMARKS
GRAND JUNCTION FAIR      66  37  34 W8        29.91F
MONTROSE       FAIR      61  35  37 VRB3      29.97F
EAGLE          MOSUNNY   54  36  50 CALM      29.99F
RIFLE          LGT RAIN  63  34  33 N7        29.93F
DELTA          FAIR      66  35  31 SW6       29.94F
NUCLA          FAIR      63  32  31 NW8       30.00S
$$

COZ017>023-064>068-271900-
...SOUTHWEST COLORADO...

CITY           SKY/WX    TMP DP  RH WIND       PRES   REMARKS
DURANGO        PTSUNNY   60  28  29 W14G20    29.94F
CORTEZ         FAIR      65  33  30 W18G24    29.95F
PAGOSA SPRINGS FAIR      58  28  31 SW9G20    29.99S
TELLURIDE      CLOUDY    47  32  56 W6        30.09R
WOLF CREEK PAS CLOUDY    36  21  55 SW13      30.16S
$$

COZ009-010-012-014-032>034-037-058>063-271900-
...CENTRAL COLORADO...

CITY           SKY/WX    TMP DP  RH WIND       PRES   REMARKS
ASPEN          FAIR      51  34  52 NE5       30.00S
BUENA VISTA    FAIR      55  24  31 NW14G23   29.95S
COPPER MTN     NOT AVBL
BERTHOUD PASS  CLOUDY    25  14  63 N9G26     30.12R WCI  15
COTTONWOOD PAS PTSUNNY   46  25  42 W7G20     30.04R
GUNNISON       FAIR      55  25  30 N9G18     29.99F
KREMMLING      PTSUNNY   54  30  40 NW9G16    29.99R
LEADVILLE      FLURRIES  41  29  62 N8        30.03S
MONARCH PASS   CLOUDY    30  28  93 W6        30.23R WCI  24
SALIDA         PTSUNNY   58  30  34 W7        30.01S
SUNLIGHT       FAIR      41  30  65 NW8       30.15S
WILKERSON PASS CLOUDY    32  28  86 N5        30.10R WCI  27
$$

COZ069>075-271900-
...SAN LUIS VALLEY/SANGRE DE CRISTO MOUNTAINS...

CITY           SKY/WX    TMP DP  RH WIND       PRES   REMARKS
ALAMOSA        FAIR      53  36  52 N10       29.97S
LA VETA PASS   PTSUNNY   37  34  87 S9        30.03S
SAGUACHE       FAIR      50  34  53 NW10      29.99R
$$

COZ035-036-038>040-271900-
...NORTHERN COLORADO FRONT RANGE...

CITY           SKY/WX    TMP DP  RH WIND       PRES   REMARKS
DENVER INTL AP PTSUNNY   50  44  80 N15       29.90F
DMNS CITY PARK   N/A     56  40  54 NE28      29.90S
AURORA         LGT RAIN  48  45  87 N23       29.93R
FRONT RANGE AP CLOUDY    48  46  93 NW12      29.91S
ERIE MUNI ARPT CLOUDY    58  41  54 NE10G17   29.90S
BOULDER MUN AP NOT AVBL
CENTENNIAL     CLOUDY    50  41  71 NE20G29   29.92R
BROOMFIELD     PTSUNNY   57  41  54 N16G26    29.91R
FORT COLLINS   CLOUDY    46  41  81 N14G20    29.90S
LONGMONT       CLOUDY    63  43  48 NE12      29.90F
$$

COZ041-046-047-076>085-087-088-271900-
...PIKES PEAK/PALMER DIVIDE AND SOUTHERN FOOTHILLS...

CITY           SKY/WX    TMP DP  RH WIND       PRES   REMARKS
COLO. SPRINGS  PTSUNNY   56  38  50 N36G44    29.87R
A. F. ACADEMY  PTSUNNY   55  37  50 N29G38    29.88R
SCHRIEVER AFB  NOT AVBL
ELLICOTT       LGT RAIN N/A N/A N/A N38G48    29.86R
FALCON         RAIN      45  41  88 N23G33    29.92R
FORT CARSON    PTSUNNY   59  39  48 N31G43    29.85R
LIMON          CLOUDY    49  48  97 N24       29.83R
MONUMENT HILL  LGT RAIN  41  37  87 N24G41    29.95R
TRINIDAD       FAIR      59  37  44 NW18G30   29.85F
$$

COZ042>045-048>051-090-091-271900-
...NORTHEAST COLORADO...

CITY           SKY/WX    TMP DP  RH WIND       PRES   REMARKS
GREELEY ARPT   FAIR      59  46  63 N18       29.89S
AKRON          LGT RAIN  55  48  77 N22       29.84R
BURLINGTON     PTSUNNY   63  50  62 NE18      29.75S
WRAY           PTSUNNY   61  52  72 NE16G22   29.79R
STERLING       LGT RAIN  55  48  76 NE16G22   29.85R
HOLYOKE        NOT AVBL
FORT MORGAN    CLOUDY    53  46  76 N12G17    29.88R
$$

COZ086-089-092>099-271900-
...SOUTHEAST COLORADO...

CITY           SKY/WX    TMP DP  RH WIND       PRES   REMARKS
PUEBLO         PTSUNNY   61  44  53 N23G32    29.83S
LA JUNTA       LGT RAIN  54  47  77 NW30G43   29.79S
LAMAR          PTSUNNY   61  49  64 W8        29.69F
SPRINGFIELD      N/A     55  44  66 W20G30    29.78R
$$




USA.gov is the U.S. government's official web portal to all federal, state and local government web resources and services.